Location: Bougoudala
(13.2282°N, 4.9477°W)
Time: 23:54:47
(UTC+00:00)

YAOGAN 1 - Pass Details

Date: 29 January 2020
Orbit: 619 x 621 km, 98.0° (Epoch: 19 February)

Event Time Altitude Azimuth Distance (km) Brightness Sun altitude
Rises 18:54:42 0° 158° (SSE) 2,885 5.9 -9.1°
Reaches altitude 10° 18:56:56 10° 153° (SSE) 1,980 5.0 -9.6°
Maximum altitude 19:01:06 51° 77° (ENE) 782 2.7 -10.6°
Drops below altitude 10° 19:05:17 10° 2° (N) 1,980 5.0 -11.6°
Sets 19:07:30 0° 357° (N) 2,886 5.9 -12.1°
